Time,TemperatureF,DewpointF,PressureIn,WindDirection,WindDirectionDegrees,WindSpeedMPH,WindSpeedGustMPH,Humidity,HourlyPrecipIn,Conditions,Clouds,dailyrainin,SolarRadiationWatts/m^2,SoftwareType,DateUTC
2013-07-02 00:01:00,74.3,72.1,29.98,South,184,0.0,3.0,93,0.00,,,2.03,0.0,meteohub,2013-07-02 04:01:00,
2013-07-02 00:06:00,74.3,72.1,29.98,South,190,0.0,3.0,93,0.00,,,0.00,0.0,meteohub,2013-07-02 04:06:00,
2013-07-02 00:11:00,74.5,72.3,29.98,South,182,0.0,3.0,93,0.00,,,0.00,0.0,meteohub,2013-07-02 04:11:00,
2013-07-02 00:16:00,74.5,72.3,29.98,South,174,1.0,3.0,93,0.00,,,0.00,0.0,meteohub,2013-07-02 04:16:00,
2013-07-02 00:21:00,74.5,72.3,29.98,South,170,0.0,4.0,93,0.00,,,0.00,0.0,meteohub,2013-07-02 04:21:00,
2013-07-02 00:26:00,74.5,72.3,29.99,WSW,240,0.0,4.0,93,0.00,,,0.00,0.0,meteohub,2013-07-02 04:26:00,
2013-07-02 00:31:00,74.5,72.3,29.99,West,259,1.0,4.0,93,0.00,,,0.00,0.0,meteohub,2013-07-02 04:31:00,
2013-07-02 00:36:00,74.3,72.1,29.99,SSE,151,0.0,3.0,93,0.00,,,0.00,0.0,meteohub,2013-07-02 04:36:00,
2013-07-02 00:41:00,74.3,72.1,29.99,NE,42,0.0,3.0,93,0.00,,,0.00,0.0,meteohub,2013-07-02 04:41:00,
2013-07-02 00:46:00,74.3,72.1,29.99,SSE,167,0.0,2.0,93,0.00,,,0.00,0.0,meteohub,2013-07-02 04:46:00,
2013-07-02 00:51:00,74.1,72.0,29.99,ESE,106,0.0,2.0,93,0.00,,,0.00,0.0,meteohub,2013-07-02 04:51:00,
2013-07-02 00:56:00,74.1,72.0,29.99,ESE,112,0.0,3.0,93,0.00,,,0.00,0.0,meteohub,2013-07-02 04:56:00,
2013-07-02 01:01:00,74.1,72.0,29.99,SSE,163,0.0,3.0,93,0.00,,,0.00,0.0,meteohub,2013-07-02 05:01:00,
2013-07-02 01:06:00,73.9,71.8,29.99,WSW,241,0.0,3.0,93,0.00,,,0.00,0.0,meteohub,2013-07-02 05:06:00,
2013-07-02 01:12:00,73.9,71.8,29.99,SSE,165,0.0,2.0,93,0.00,,,0.00,0.0,meteohub,2013-07-02 05:12:00,
2013-07-02 01:17:00,73.9,72.1,29.99,SE,131,0.0,2.0,94,0.00,,,0.00,0.0,meteohub,2013-07-02 05:17:00,
2013-07-02 01:22:00,73.9,72.1,29.99,SE,131,0.0,1.0,94,0.00,,,0.00,0.0,meteohub,2013-07-02 05:22:00,
2013-07-02 01:27:00,73.8,72.0,29.99,ESE,122,0.0,1.0,94,0.00,,,0.00,0.0,meteohub,2013-07-02 05:27:00,
2013-07-02 01:32:00,73.8,72.0,29.99,ESE,122,0.0,1.0,94,0.00,,,0.00,0.0,meteohub,2013-07-02 05:32:00,
2013-07-02 01:37:00,73.8,72.0,29.99,SSE,150,0.0,1.0,94,0.00,,,0.00,0.0,meteohub,2013-07-02 05:37:00,
2013-07-02 01:42:00,73.6,71.8,29.98,SSE,148,0.0,1.0,94,0.00,,,0.00,0.0,meteohub,2013-07-02 05:42:00,
2013-07-02 01:47:00,73.6,71.8,29.98,SSE,150,0.0,1.0,94,0.00,,,0.00,0.0,meteohub,2013-07-02 05:47:00,
2013-07-02 01:52:00,73.6,71.8,29.98,SSE,150,0.0,1.0,94,0.00,,,0.00,0.0,meteohub,2013-07-02 05:52:00,
2013-07-02 01:57:00,73.6,71.8,29.99,SSE,150,0.0,1.0,94,0.00,,,0.00,0.0,meteohub,2013-07-02 05:57:00,
2013-07-02 02:02:00,73.6,71.8,29.99,SSE,150,0.0,1.0,94,0.00,,,0.00,0.0,meteohub,2013-07-02 06:02:00,
2013-07-02 02:07:00,73.6,71.8,29.99,SSE,150,0.0,1.0,94,0.00,,,0.00,0.0,meteohub,2013-07-02 06:07:00,
2013-07-02 02:12:00,73.6,72.1,29.99,SSE,150,0.0,1.0,95,0.00,,,0.00,0.0,meteohub,2013-07-02 06:12:00,
2013-07-02 02:17:00,73.6,72.1,29.99,SSE,150,0.0,0.0,95,0.00,,,0.00,0.0,meteohub,2013-07-02 06:17:00,
2013-07-02 02:22:00,73.6,72.1,29.99,SSE,150,0.0,0.0,95,0.00,,,0.00,0.0,meteohub,2013-07-02 06:22:00,
2013-07-02 02:27:00,73.6,72.1,29.99,South,175,0.0,1.0,95,0.00,,,0.00,0.0,meteohub,2013-07-02 06:27:00,
2013-07-02 02:32:00,73.6,72.1,29.99,South,175,0.0,1.0,95,0.00,,,0.00,0.0,meteohub,2013-07-02 06:32:00,
2013-07-02 02:37:00,73.6,72.1,29.99,SSE,159,0.0,1.0,95,0.00,,,0.00,0.0,meteohub,2013-07-02 06:37:00,
2013-07-02 02:42:00,73.8,72.3,29.99,SSE,153,0.0,1.0,95,0.00,,,0.00,0.0,meteohub,2013-07-02 06:42:00,
2013-07-02 02:47:00,73.8,72.3,29.99,SSE,157,1.0,2.0,95,0.00,,,0.00,0.0,meteohub,2013-07-02 06:47:00,
2013-07-02 02:52:00,73.8,72.0,29.99,ESE,123,0.0,2.0,94,0.00,,,0.00,0.0,meteohub,2013-07-02 06:52:00,
2013-07-02 02:57:00,73.9,72.1,29.99,South,181,1.0,2.0,94,0.00,,,0.00,0.0,meteohub,2013-07-02 06:57:00,
2013-07-02 03:02:00,73.9,72.1,29.99,SSE,162,0.0,2.0,94,0.00,,,0.00,0.0,meteohub,2013-07-02 07:02:00,
2013-07-02 03:07:00,73.9,71.8,29.99,SSE,165,1.0,2.0,93,0.00,,,0.00,0.0,meteohub,2013-07-02 07:07:00,
2013-07-02 03:12:00,74.1,72.0,29.99,SSE,165,0.0,2.0,93,0.00,,,0.00,0.0,meteohub,2013-07-02 07:12:00,
2013-07-02 03:17:00,74.1,72.0,29.99,SSE,165,0.0,2.0,93,0.00,,,0.00,0.0,meteohub,2013-07-02 07:17:00,
2013-07-02 03:22:00,74.1,72.0,29.99,SE,136,0.0,2.0,93,0.00,,,0.00,0.0,meteohub,2013-07-02 07:22:00,
2013-07-02 03:27:00,74.1,72.0,29.99,SE,136,0.0,1.0,93,0.00,,,0.00,0.0,meteohub,2013-07-02 07:27:00,
2013-07-02 03:32:00,74.1,72.0,29.99,South,181,0.0,1.0,93,0.00,,,0.00,0.0,meteohub,2013-07-02 07:32:00,
2013-07-02 03:37:00,74.1,71.6,29.99,South,185,1.0,5.0,92,0.00,,,0.00,0.0,meteohub,2013-07-02 07:37:00,
2013-07-02 03:42:00,74.1,71.6,30.00,SSE,165,0.0,5.0,92,0.00,,,0.00,0.0,meteohub,2013-07-02 07:42:00,
2013-07-02 03:47:00,74.1,71.6,30.00,SE,140,0.0,2.0,92,0.00,,,0.00,0.0,meteohub,2013-07-02 07:47:00,
2013-07-02 03:52:00,73.9,71.4,30.00,SSW,193,0.0,2.0,92,0.00,,,0.00,0.0,meteohub,2013-07-02 07:52:00,
2013-07-02 03:57:00,73.9,71.4,30.00,SSW,202,0.0,2.0,92,0.00,,,0.00,0.0,meteohub,2013-07-02 07:57:00,
2013-07-02 04:02:00,73.9,71.4,30.00,SE,141,0.0,3.0,92,0.00,,,0.00,0.0,meteohub,2013-07-02 08:02:00,
2013-07-02 04:07:00,73.9,71.4,30.00,SSE,155,0.0,3.0,92,0.00,,,0.00,0.0,meteohub,2013-07-02 08:07:00,
2013-07-02 04:12:00,73.9,71.4,30.00,SW,229,0.0,3.0,92,0.00,,,0.00,0.0,meteohub,2013-07-02 08:12:00,
2013-07-02 04:17:00,73.8,71.2,29.99,ESE,105,0.0,2.0,92,0.00,,,0.00,0.0,meteohub,2013-07-02 08:17:00,
2013-07-02 04:22:00,73.8,71.2,30.00,South,185,0.0,2.0,92,0.00,,,0.00,0.0,meteohub,2013-07-02 08:22:00,
2013-07-02 04:28:00,73.6,71.1,30.00,SSW,198,1.0,3.0,92,0.00,,,0.00,0.0,meteohub,2013-07-02 08:28:00,
2013-07-02 04:33:00,73.4,71.2,30.00,SSE,162,0.0,3.0,93,0.00,,,0.00,0.0,meteohub,2013-07-02 08:33:00,
2013-07-02 04:38:00,73.4,70.9,30.00,SSE,150,0.0,2.0,92,0.00,,,0.00,0.0,meteohub,2013-07-02 08:38:00,
2013-07-02 04:43:00,73.4,71.2,30.00,ESE,109,0.0,2.0,93,0.00,,,0.00,0.0,meteohub,2013-07-02 08:43:00,
2013-07-02 04:48:00,73.4,71.2,30.00,South,183,0.0,2.0,93,0.00,,,0.00,0.0,meteohub,2013-07-02 08:48:00,
2013-07-02 04:53:00,73.2,71.1,30.01,South,184,0.0,3.0,93,0.00,,,0.00,0.0,meteohub,2013-07-02 08:53:00,
2013-07-02 04:58:00,73.2,71.1,30.01,South,184,0.0,3.0,93,0.00,,,0.00,0.0,meteohub,2013-07-02 08:58:00,
2013-07-02 05:03:00,73.2,71.1,30.01,ESE,123,0.0,3.0,93,0.00,,,0.00,0.0,meteohub,2013-07-02 09:03:00,
2013-07-02 05:08:00,73.2,71.1,30.01,SSE,161,0.0,2.0,93,0.00,,,0.00,0.0,meteohub,2013-07-02 09:08:00,
2013-07-02 05:13:00,73.2,71.1,30.01,South,189,0.0,2.0,93,0.00,,,0.00,0.0,meteohub,2013-07-02 09:13:00,
2013-07-02 05:18:00,73.2,71.1,30.01,NW,325,1.0,2.0,93,0.00,,,0.00,0.0,meteohub,2013-07-02 09:18:00,
2013-07-02 05:23:00,73.2,71.1,30.01,SSE,155,0.0,1.0,93,0.00,,,0.00,0.0,meteohub,2013-07-02 09:23:00,
2013-07-02 05:28:00,73.2,71.1,30.01,South,173,0.0,1.0,93,0.00,,,0.00,0.0,meteohub,2013-07-02 09:28:00,
2013-07-02 05:33:00,73.2,71.1,30.01,South,172,0.0,2.0,93,0.00,,,0.00,0.0,meteohub,2013-07-02 09:33:00,
2013-07-02 05:38:00,73.4,71.2,30.01,South,170,0.0,2.0,93,0.00,,,0.00,0.0,meteohub,2013-07-02 09:38:00,
2013-07-02 05:43:00,73.4,71.2,30.01,South,171,0.0,3.0,93,0.00,,,0.00,0.0,meteohub,2013-07-02 09:43:00,
2013-07-02 05:48:00,73.6,71.4,30.02,SSE,149,0.0,3.0,93,0.00,,,0.00,0.0,meteohub,2013-07-02 09:48:00,
2013-07-02 05:53:00,73.6,71.4,30.02,SE,143,0.0,3.0,93,0.00,,,0.00,7.0,meteohub,2013-07-02 09:53:00,
2013-07-02 05:58:00,73.6,71.1,30.02,SSE,150,0.0,3.0,92,0.00,,,0.00,11.0,meteohub,2013-07-02 09:58:00,
2013-07-02 06:03:00,73.8,71.2,30.02,SE,131,0.0,3.0,92,0.00,,,0.00,12.0,meteohub,2013-07-02 10:03:00,
2013-07-02 06:08:00,73.8,71.2,30.02,SSW,196,0.0,2.0,92,0.00,,,0.00,14.0,meteohub,2013-07-02 10:08:00,
2013-07-02 06:13:00,73.8,71.2,30.02,SSE,165,0.0,2.0,92,0.00,,,0.00,18.0,meteohub,2013-07-02 10:13:00,
2013-07-02 06:18:00,73.8,71.2,30.02,South,174,0.0,2.0,92,0.00,,,0.00,37.0,meteohub,2013-07-02 10:18:00,
2013-07-02 06:23:00,73.8,71.2,30.02,SW,221,0.0,2.0,92,0.00,,,0.00,35.0,meteohub,2013-07-02 10:23:00,
2013-07-02 06:28:00,73.9,71.4,30.02,ESE,116,0.0,2.0,92,0.00,,,0.00,23.0,meteohub,2013-07-02 10:28:00,
2013-07-02 06:33:00,73.9,71.4,30.02,ESE,116,0.0,2.0,92,0.00,,,0.00,14.0,meteohub,2013-07-02 10:33:00,
2013-07-02 06:38:00,73.9,71.1,30.03,SE,143,0.0,2.0,91,0.00,,,0.00,11.0,meteohub,2013-07-02 10:38:00,
2013-07-02 06:43:00,73.9,71.1,30.03,SE,129,0.0,2.0,91,0.00,,,0.00,12.0,meteohub,2013-07-02 10:43:00,
2013-07-02 06:48:00,73.9,71.1,30.04,South,172,0.0,2.0,91,0.00,,,0.00,11.0,meteohub,2013-07-02 10:48:00,
2013-07-02 06:53:00,73.9,71.4,30.04,South,169,1.0,2.0,92,0.00,,,0.00,12.0,meteohub,2013-07-02 10:53:00,
2013-07-02 06:58:00,73.9,71.4,30.04,South,169,0.0,2.0,92,0.00,,,0.00,14.0,meteohub,2013-07-02 10:58:00,
2013-07-02 07:03:00,73.8,71.2,30.04,SSE,166,0.0,2.0,92,0.00,,,0.00,16.0,meteohub,2013-07-02 11:03:00,
2013-07-02 07:08:00,73.9,71.4,30.04,SSE,166,0.0,2.0,92,0.00,,,0.00,11.0,meteohub,2013-07-02 11:08:00,
2013-07-02 07:13:00,73.8,71.2,30.04,SSE,166,0.0,1.0,92,0.00,,,0.00,12.0,meteohub,2013-07-02 11:13:00,
2013-07-02 07:19:00,73.9,71.4,30.04,WNW,292,0.0,2.0,92,0.00,,,0.00,28.0,meteohub,2013-07-02 11:19:00,
2013-07-02 07:24:00,73.9,71.4,30.04,North,355,0.0,2.0,92,0.00,,,0.00,26.0,meteohub,2013-07-02 11:24:00,
2013-07-02 07:29:00,73.9,71.4,30.04,SSW,195,0.0,2.0,92,0.00,,,0.00,33.0,meteohub,2013-07-02 11:29:00,
2013-07-02 07:34:00,73.9,71.4,30.04,West,269,0.0,1.0,92,0.00,,,0.00,35.0,meteohub,2013-07-02 11:34:00,
2013-07-02 07:39:00,74.1,71.6,30.04,West,269,0.0,1.0,92,0.00,,,0.00,26.0,meteohub,2013-07-02 11:39:00,
2013-07-02 07:44:00,74.1,71.6,30.04,West,269,0.0,1.0,92,0.00,,,0.00,28.0,meteohub,2013-07-02 11:44:00,
2013-07-02 07:49:00,74.1,71.6,30.05,ESE,118,0.0,1.0,92,0.00,,,0.00,28.0,meteohub,2013-07-02 11:49:00,
2013-07-02 07:54:00,74.1,71.6,30.05,ESE,120,0.0,1.0,92,0.00,,,0.00,28.0,meteohub,2013-07-02 11:54:00,
2013-07-02 07:59:00,74.1,71.6,30.05,ESE,120,0.0,1.0,92,0.00,,,0.00,25.0,meteohub,2013-07-02 11:59:00,
2013-07-02 08:04:00,74.1,71.6,30.06,SSE,163,0.0,2.0,92,0.00,,,0.00,51.0,meteohub,2013-07-02 12:04:00,
2013-07-02 08:09:00,74.3,71.8,30.06,South,184,0.0,2.0,92,0.00,,,0.00,33.0,meteohub,2013-07-02 12:09:00,
2013-07-02 08:14:00,74.5,72.0,30.06,NNW,338,0.0,2.0,92,0.00,,,0.00,35.0,meteohub,2013-07-02 12:14:00,
2013-07-02 08:19:00,74.5,72.0,30.06,WSW,257,0.0,2.0,92,0.00,,,0.00,39.0,meteohub,2013-07-02 12:19:00,
2013-07-02 08:24:00,74.5,72.0,30.06,WSW,241,0.0,2.0,92,0.00,,,0.00,32.0,meteohub,2013-07-02 12:24:00,
2013-07-02 08:29:00,74.5,72.0,30.06,SSE,164,0.0,2.0,92,0.00,,,0.00,53.0,meteohub,2013-07-02 12:29:00,
2013-07-02 08:34:00,74.5,72.0,30.06,SSE,164,0.0,2.0,92,0.00,,,0.00,51.0,meteohub,2013-07-02 12:34:00,
2013-07-02 08:39:00,74.7,71.8,30.06,ENE,67,1.0,2.0,91,0.00,,,0.00,69.0,meteohub,2013-07-02 12:39:00,
2013-07-02 08:44:00,74.7,71.8,30.06,SSW,194,0.0,2.0,91,0.00,,,0.00,74.0,meteohub,2013-07-02 12:44:00,
2013-07-02 08:49:00,74.7,71.8,30.06,South,185,0.0,3.0,91,0.00,,,0.00,91.0,meteohub,2013-07-02 12:49:00,
2013-07-02 08:54:00,74.8,72.3,30.06,SSE,166,0.0,3.0,92,0.00,,,0.00,127.0,meteohub,2013-07-02 12:54:00,
2013-07-02 08:59:00,75.2,72.3,30.06,SSE,157,0.0,2.0,91,0.00,,,0.00,144.0,meteohub,2013-07-02 12:59:00,
2013-07-02 09:04:00,75.4,72.3,30.06,SSW,201,0.0,2.0,90,0.00,,,0.00,123.0,meteohub,2013-07-02 13:04:00,
2013-07-02 09:09:00,75.7,72.7,30.06,ESE,119,0.0,3.0,90,0.00,,,0.00,144.0,meteohub,2013-07-02 13:09:00,
2013-07-02 09:14:00,75.9,72.9,30.06,SSE,155,0.0,3.0,90,0.00,,,0.00,137.0,meteohub,2013-07-02 13:14:00,
2013-07-02 09:19:00,75.9,72.5,30.06,SSW,192,0.0,3.0,89,0.00,,,0.00,146.0,meteohub,2013-07-02 13:19:00,
2013-07-02 09:24:00,76.3,72.9,30.06,West,266,0.0,5.0,89,0.00,,,0.00,190.0,meteohub,2013-07-02 13:24:00,
2013-07-02 09:29:00,76.5,73.2,30.06,SE,135,0.0,5.0,90,0.00,,,0.00,162.0,meteohub,2013-07-02 13:29:00,
2013-07-02 09:34:00,76.5,72.7,30.06,WSW,240,0.0,5.0,88,0.00,,,0.00,86.0,meteohub,2013-07-02 13:34:00,
2013-07-02 09:39:00,76.3,72.9,30.06,South,190,0.0,4.0,89,0.00,,,0.00,127.0,meteohub,2013-07-02 13:39:00,
2013-07-02 09:44:00,76.3,72.9,30.06,South,191,0.0,4.0,89,0.00,,,0.00,79.0,meteohub,2013-07-02 13:44:00,
2013-07-02 09:49:00,76.3,72.9,30.06,South,191,0.0,4.0,89,0.00,,,0.00,77.0,meteohub,2013-07-02 13:49:00,
2013-07-02 09:54:00,75.9,72.5,30.06,ESE,121,0.0,2.0,89,0.00,,,0.00,63.0,meteohub,2013-07-02 13:54:00,
2013-07-02 09:59:00,75.9,72.5,30.07,WNW,300,0.0,2.0,89,0.00,,,0.00,88.0,meteohub,2013-07-02 13:59:00,
2013-07-02 10:04:00,76.1,72.7,30.06,WNW,300,0.0,2.0,89,0.00,,,0.00,81.0,meteohub,2013-07-02 14:04:00,
2013-07-02 10:09:00,75.9,72.5,30.06,SSW,195,0.0,2.0,89,0.00,,,0.00,169.0,meteohub,2013-07-02 14:09:00,
2013-07-02 10:14:00,76.5,73.0,30.06,SE,138,0.0,2.0,89,0.00,,,0.00,134.0,meteohub,2013-07-02 14:14:00,
2013-07-02 10:19:00,76.5,72.7,30.07,South,169,0.0,2.0,88,0.00,,,0.00,132.0,meteohub,2013-07-02 14:19:00,
2013-07-02 10:24:00,76.6,72.9,30.07,NW,311,0.0,2.0,88,0.00,,,0.00,141.0,meteohub,2013-07-02 14:24:00,
2013-07-02 10:29:00,76.6,72.9,30.07,SSW,194,0.0,2.0,88,0.00,,,0.00,137.0,meteohub,2013-07-02 14:29:00,
2013-07-02 10:35:00,76.6,73.2,30.07,SSW,194,0.0,2.0,89,0.00,,,0.00,134.0,meteohub,2013-07-02 14:35:00,
2013-07-02 10:40:00,76.6,72.9,30.08,SSE,168,0.0,2.0,88,0.00,,,0.00,121.0,meteohub,2013-07-02 14:40:00,
2013-07-02 10:45:00,76.5,73.0,30.08,SSE,155,0.0,1.0,89,0.00,,,0.00,167.0,meteohub,2013-07-02 14:45:00,
2013-07-02 10:50:00,76.6,72.9,30.07,SSE,164,0.0,1.0,88,0.00,,,0.00,169.0,meteohub,2013-07-02 14:50:00,
2013-07-02 10:55:00,76.8,73.0,30.08,SW,223,1.0,3.0,88,0.00,,,0.00,111.0,meteohub,2013-07-02 14:55:00,
2013-07-02 11:00:00,76.8,73.0,30.08,South,177,0.0,3.0,88,0.00,,,0.00,77.0,meteohub,2013-07-02 15:00:00,
2013-07-02 11:05:00,76.6,73.2,30.08,South,176,0.0,2.0,89,0.00,,,0.00,81.0,meteohub,2013-07-02 15:05:00,
2013-07-02 11:10:00,76.5,73.2,30.08,NW,321,0.0,2.0,90,0.00,,,0.00,91.0,meteohub,2013-07-02 15:10:00,
2013-07-02 11:15:00,76.3,73.0,30.08,SE,145,0.0,2.0,90,0.00,,,0.00,102.0,meteohub,2013-07-02 15:15:00,
2013-07-02 11:20:00,75.9,73.0,30.08,SSE,165,0.0,2.0,91,0.00,,,0.00,69.0,meteohub,2013-07-02 15:20:00,
2013-07-02 11:25:00,75.7,73.2,30.08,SSE,165,0.0,1.0,92,0.00,,,0.00,165.0,meteohub,2013-07-02 15:25:00,
2013-07-02 11:30:00,75.9,73.0,30.08,South,181,0.0,3.0,91,0.00,,,0.00,134.0,meteohub,2013-07-02 15:30:00,
2013-07-02 11:35:00,76.1,73.2,30.08,South,186,0.0,4.0,91,0.00,,,0.00,146.0,meteohub,2013-07-02 15:35:00,
2013-07-02 11:40:00,76.3,73.4,30.08,SSE,148,0.0,4.0,91,0.00,,,0.00,197.0,meteohub,2013-07-02 15:40:00,
2013-07-02 11:45:00,76.6,73.8,30.08,SSE,149,1.0,4.0,91,0.00,,,0.00,172.0,meteohub,2013-07-02 15:45:00,
2013-07-02 11:50:00,76.6,73.8,30.08,South,171,0.0,1.0,91,0.00,,,0.00,181.0,meteohub,2013-07-02 15:50:00,
2013-07-02 11:55:00,77.0,74.1,30.09,SE,132,0.0,1.0,91,0.00,,,0.00,232.0,meteohub,2013-07-02 15:55:00,
2013-07-02 12:00:00,77.4,74.1,30.09,SE,138,0.0,1.0,90,0.00,,,0.00,139.0,meteohub,2013-07-02 16:00:00,
2013-07-02 12:05:00,77.2,73.8,30.08,South,170,0.0,3.0,89,0.00,,,0.00,141.0,meteohub,2013-07-02 16:05:00,
2013-07-02 12:10:00,76.8,73.0,30.08,South,188,0.0,3.0,88,0.00,,,0.00,134.0,meteohub,2013-07-02 16:10:00,
2013-07-02 12:15:00,76.6,73.2,30.08,East,96,0.0,3.0,89,0.00,,,0.00,199.0,meteohub,2013-07-02 16:15:00,
2013-07-02 12:20:00,77.2,73.4,30.08,South,170,0.0,2.0,88,0.00,,,0.00,272.0,meteohub,2013-07-02 16:20:00,
2013-07-02 12:25:00,78.1,73.9,30.08,SSE,162,0.0,2.0,87,0.00,,,0.00,343.0,meteohub,2013-07-02 16:25:00,
2013-07-02 12:30:00,78.3,74.5,30.08,SSE,162,0.0,6.0,88,0.00,,,0.00,276.0,meteohub,2013-07-02 16:30:00,
2013-07-02 12:35:00,79.2,74.3,30.08,West,281,0.0,6.0,85,0.00,,,0.00,304.0,meteohub,2013-07-02 16:35:00,
2013-07-02 12:40:00,78.8,73.9,30.07,NW,322,0.0,2.0,85,0.00,,,0.00,258.0,meteohub,2013-07-02 16:40:00,
2013-07-02 12:45:00,79.2,73.9,30.07,SE,130,0.0,3.0,84,0.00,,,0.00,243.0,meteohub,2013-07-02 16:45:00,
2013-07-02 12:50:00,79.0,73.8,30.07,NNE,26,1.0,3.0,84,0.00,,,0.00,258.0,meteohub,2013-07-02 16:50:00,
2013-07-02 12:55:00,79.0,73.8,30.08,South,182,0.0,2.0,84,0.00,,,0.00,336.0,meteohub,2013-07-02 16:55:00,
2013-07-02 13:01:00,79.5,74.3,30.08,WSW,242,0.0,2.0,84,0.00,,,0.00,380.0,meteohub,2013-07-02 17:01:00,
2013-07-02 13:06:00,79.3,74.1,30.08,SE,142,0.0,2.0,84,0.00,,,0.00,329.0,meteohub,2013-07-02 17:06:00,
2013-07-02 13:11:00,79.5,73.9,30.07,WNW,293,2.0,6.0,83,0.00,,,0.00,316.0,meteohub,2013-07-02 17:11:00,
2013-07-02 13:16:00,79.7,74.1,30.07,WNW,286,0.0,6.0,83,0.00,,,0.00,276.0,meteohub,2013-07-02 17:16:00,
2013-07-02 13:21:00,79.3,73.0,30.07,ESE,111,0.0,6.0,81,0.00,,,0.00,278.0,meteohub,2013-07-02 17:21:00,
2013-07-02 13:26:00,79.5,73.9,30.07,South,173,3.0,3.0,83,0.00,,,0.00,295.0,meteohub,2013-07-02 17:26:00,
2013-07-02 13:31:00,79.2,73.6,30.07,SSW,206,0.0,3.0,83,0.00,,,0.00,260.0,meteohub,2013-07-02 17:31:00,
2013-07-02 13:36:00,79.3,73.4,30.07,SSE,165,1.0,3.0,82,0.00,,,0.00,230.0,meteohub,2013-07-02 17:36:00,
2013-07-02 13:41:00,79.0,73.8,30.07,SSE,148,0.0,3.0,84,0.00,,,0.00,267.0,meteohub,2013-07-02 17:41:00,
2013-07-02 13:46:00,79.3,73.4,30.07,ENE,77,0.0,4.0,82,0.00,,,0.00,348.0,meteohub,2013-07-02 17:46:00,
2013-07-02 13:51:00,79.3,73.4,30.07,SSE,150,1.0,4.0,82,0.00,,,0.00,496.0,meteohub,2013-07-02 17:51:00,
2013-07-02 13:56:00,80.4,74.5,30.07,WNW,290,0.0,4.0,82,0.00,,,0.00,1074.0,meteohub,2013-07-02 17:56:00,
2013-07-02 14:01:00,81.9,75.0,30.06,SSE,161,0.0,4.0,80,0.00,,,0.00,529.0,meteohub,2013-07-02 18:01:00,
2013-07-02 14:06:00,81.3,73.8,30.06,SE,140,2.0,3.0,78,0.00,,,0.00,529.0,meteohub,2013-07-02 18:06:00,
2013-07-02 14:11:00,81.1,74.7,30.07,South,180,0.0,5.0,81,0.00,,,0.00,232.0,meteohub,2013-07-02 18:11:00,
2013-07-02 14:16:00,82.4,74.5,30.06,WNW,287,0.0,5.0,77,0.00,,,0.00,1041.0,meteohub,2013-07-02 18:16:00,
2013-07-02 14:21:00,82.9,74.7,30.06,WNW,288,0.0,5.0,76,0.00,,,0.00,186.0,meteohub,2013-07-02 18:21:00,
2013-07-02 14:26:00,81.3,73.4,30.06,NNW,340,1.0,5.0,77,0.00,,,0.00,578.0,meteohub,2013-07-02 18:26:00,
2013-07-02 14:31:00,81.3,73.8,30.06,SW,228,0.0,5.0,78,0.00,,,0.00,223.0,meteohub,2013-07-02 18:31:00,
2013-07-02 14:36:00,82.4,75.2,30.06,SW,228,0.0,3.0,79,0.00,,,0.00,1085.0,meteohub,2013-07-02 18:36:00,
2013-07-02 14:41:00,82.8,73.9,30.06,SW,224,1.0,3.0,75,0.00,,,0.00,1025.0,meteohub,2013-07-02 18:41:00,
2013-07-02 14:46:00,82.9,73.8,30.06,SE,140,0.0,3.0,74,0.00,,,0.00,997.0,meteohub,2013-07-02 18:46:00,
2013-07-02 14:51:00,82.9,74.7,30.06,SW,229,1.0,3.0,76,0.00,,,0.00,1053.0,meteohub,2013-07-02 18:51:00,
2013-07-02 14:56:00,83.7,74.1,30.06,NW,315,0.0,6.0,73,0.00,,,0.00,229.0,meteohub,2013-07-02 18:56:00,
2013-07-02 15:01:00,84.0,74.8,30.06,SSW,212,0.0,6.0,74,0.00,,,0.00,1111.0,meteohub,2013-07-02 19:01:00,
2013-07-02 15:06:00,83.8,74.3,30.06,South,169,0.0,6.0,73,0.00,,,0.00,969.0,meteohub,2013-07-02 19:06:00,
2013-07-02 15:11:00,83.7,74.5,30.06,SSW,192,3.0,3.0,74,0.00,,,0.00,1004.0,meteohub,2013-07-02 19:11:00,
2013-07-02 15:16:00,83.1,73.6,30.06,NW,314,0.0,4.0,73,0.00,,,0.00,499.0,meteohub,2013-07-02 19:16:00,
2013-07-02 15:22:00,83.8,75.4,30.06,ESE,113,0.0,4.0,76,0.00,,,0.00,1086.0,meteohub,2013-07-02 19:22:00,
2013-07-02 15:27:00,83.3,73.8,30.06,SSE,155,0.0,4.0,73,0.00,,,0.00,406.0,meteohub,2013-07-02 19:27:00,
2013-07-02 15:32:00,82.9,73.4,30.06,SSE,161,1.0,8.0,73,0.00,,,0.00,329.0,meteohub,2013-07-02 19:32:00,
2013-07-02 15:37:00,82.6,73.0,30.06,South,174,0.0,8.0,73,0.00,,,0.00,339.0,meteohub,2013-07-02 19:37:00,
2013-07-02 15:42:00,82.2,72.7,30.05,South,178,0.0,4.0,73,0.00,,,0.00,267.0,meteohub,2013-07-02 19:42:00,
2013-07-02 15:47:00,81.9,72.7,30.05,South,180,1.0,4.0,74,0.00,,,0.00,290.0,meteohub,2013-07-02 19:47:00,
2013-07-02 15:52:00,81.9,73.2,30.05,South,187,1.0,4.0,75,0.00,,,0.00,308.0,meteohub,2013-07-02 19:52:00,
2013-07-02 15:57:00,82.2,73.9,30.05,NE,49,2.0,4.0,76,0.00,,,0.00,332.0,meteohub,2013-07-02 19:57:00,
2013-07-02 16:02:00,82.2,73.6,30.06,ENE,67,0.0,4.0,75,0.00,,,0.00,427.0,meteohub,2013-07-02 20:02:00,
2013-07-02 16:07:00,82.6,74.3,30.06,East,80,0.0,3.0,76,0.00,,,0.00,199.0,meteohub,2013-07-02 20:07:00,
2013-07-02 16:12:00,82.4,74.1,30.05,SE,134,1.0,3.0,76,0.00,,,0.00,246.0,meteohub,2013-07-02 20:12:00,
2013-07-02 16:17:00,81.9,73.6,30.06,East,81,0.0,3.0,76,0.00,,,0.00,272.0,meteohub,2013-07-02 20:17:00,
2013-07-02 16:22:00,82.0,73.8,30.05,NW,320,0.0,3.0,76,0.00,,,0.00,248.0,meteohub,2013-07-02 20:22:00,
2013-07-02 16:27:00,81.9,73.9,30.05,SSE,160,1.0,3.0,77,0.00,,,0.00,221.0,meteohub,2013-07-02 20:27:00,
2013-07-02 16:32:00,81.7,74.1,30.05,SSE,158,1.0,2.0,78,0.00,,,0.00,327.0,meteohub,2013-07-02 20:32:00,
2013-07-02 16:37:00,81.9,73.6,30.05,SE,140,1.0,3.0,76,0.00,,,0.00,316.0,meteohub,2013-07-02 20:37:00,
2013-07-02 16:42:00,82.9,74.7,30.05,NNW,332,2.0,5.0,76,0.00,,,0.00,399.0,meteohub,2013-07-02 20:42:00,
2013-07-02 16:47:00,82.9,73.8,30.06,SE,139,0.0,5.0,74,0.00,,,0.00,399.0,meteohub,2013-07-02 20:47:00,
2013-07-02 16:52:00,83.7,75.7,30.06,WNW,302,0.0,5.0,77,0.00,,,0.00,494.0,meteohub,2013-07-02 20:52:00,
2013-07-02 16:57:00,83.5,75.0,30.06,NNW,338,0.0,3.0,76,0.00,,,0.00,343.0,meteohub,2013-07-02 20:57:00,
2013-07-02 17:02:00,82.9,73.8,30.06,South,184,0.0,3.0,74,0.00,,,0.00,353.0,meteohub,2013-07-02 21:02:00,
2013-07-02 17:07:00,82.2,73.9,30.06,WSW,246,0.0,3.0,76,0.00,,,0.00,97.0,meteohub,2013-07-02 21:07:00,
2013-07-02 17:12:00,81.5,73.6,30.06,SE,127,0.0,3.0,77,0.00,,,0.00,70.0,meteohub,2013-07-02 21:12:00,
2013-07-02 17:17:00,81.1,73.2,30.06,ESE,107,0.0,3.0,77,0.00,,,0.00,142.0,meteohub,2013-07-02 21:17:00,
2013-07-02 17:22:00,81.1,73.2,30.06,SSE,155,0.0,6.0,77,0.00,,,0.00,130.0,meteohub,2013-07-02 21:22:00,
2013-07-02 17:27:00,81.1,73.2,30.06,WNW,292,0.0,6.0,77,0.00,,,0.00,127.0,meteohub,2013-07-02 21:27:00,
2013-07-02 17:32:00,81.3,73.0,30.06,West,279,0.0,6.0,76,0.00,,,0.00,114.0,meteohub,2013-07-02 21:32:00,
2013-07-02 17:37:00,81.1,73.2,30.06,NE,38,0.0,3.0,77,0.00,,,0.00,116.0,meteohub,2013-07-02 21:37:00,
2013-07-02 17:42:00,81.1,73.9,30.06,NNW,329,0.0,3.0,79,0.00,,,0.00,97.0,meteohub,2013-07-02 21:42:00,
2013-07-02 17:47:00,81.0,73.4,30.07,NW,325,0.0,2.0,78,0.00,,,0.00,88.0,meteohub,2013-07-02 21:47:00,
2013-07-02 17:52:00,80.8,72.9,30.07,SE,134,0.0,5.0,77,0.00,,,0.00,77.0,meteohub,2013-07-02 21:52:00,
2013-07-02 17:57:00,80.4,72.5,30.07,NNE,23,1.0,5.0,77,0.00,,,0.00,67.0,meteohub,2013-07-02 21:57:00,
2013-07-02 18:02:00,80.4,72.5,30.07,SE,127,0.0,5.0,77,0.00,,,0.00,65.0,meteohub,2013-07-02 22:02:00,
2013-07-02 18:07:00,80.2,72.7,30.07,NW,321,0.0,3.0,78,0.00,,,0.00,56.0,meteohub,2013-07-02 22:07:00,
2013-07-02 18:12:00,80.1,73.0,30.07,NW,321,1.0,3.0,79,0.00,,,0.00,47.0,meteohub,2013-07-02 22:12:00,
2013-07-02 18:17:00,80.1,73.0,30.08,West,265,0.0,6.0,79,0.00,,,0.00,47.0,meteohub,2013-07-02 22:17:00,
2013-07-02 18:22:00,79.9,72.9,30.08,West,265,0.0,6.0,79,0.00,,,0.00,47.0,meteohub,2013-07-02 22:22:00,
2013-07-02 18:27:00,79.7,73.0,30.08,East,89,0.0,6.0,80,0.00,,,0.00,46.0,meteohub,2013-07-02 22:27:00,
2013-07-02 18:32:00,79.7,73.0,30.09,SSW,192,0.0,1.0,80,0.00,,,0.00,44.0,meteohub,2013-07-02 22:32:00,
2013-07-02 18:37:00,79.7,73.0,30.09,SSW,194,0.0,1.0,80,0.00,,,0.00,40.0,meteohub,2013-07-02 22:37:00,
2013-07-02 18:42:00,79.5,72.9,30.09,SSW,194,0.0,3.0,80,0.00,,,0.00,35.0,meteohub,2013-07-02 22:42:00,
2013-07-02 18:47:00,79.3,73.0,30.09,NNW,332,0.0,3.0,81,0.00,,,0.00,33.0,meteohub,2013-07-02 22:47:00,
2013-07-02 18:52:00,79.0,72.7,30.09,NNE,19,0.0,3.0,81,0.00,,,0.00,39.0,meteohub,2013-07-02 22:52:00,
2013-07-02 18:57:00,78.3,72.0,30.10,SE,144,0.0,5.0,81,0.00,,,0.00,39.0,meteohub,2013-07-02 22:57:00,
2013-07-02 19:03:00,77.9,71.6,30.10,West,264,0.0,5.0,81,0.00,,,0.00,39.0,meteohub,2013-07-02 23:03:00,
2013-07-02 19:08:00,77.7,71.8,30.10,North,355,0.0,5.0,82,0.00,,,0.00,39.0,meteohub,2013-07-02 23:08:00,
2013-07-02 19:13:00,77.5,72.0,30.10,North,355,1.0,4.0,83,0.00,,,0.00,37.0,meteohub,2013-07-02 23:13:00,
2013-07-02 19:18:00,77.5,72.0,30.10,North,350,0.0,2.0,83,0.00,,,0.00,37.0,meteohub,2013-07-02 23:18:00,
2013-07-02 19:22:00,77.5,72.0,30.10,South,182,0.0,2.0,83,0.00,,,0.00,37.0,meteohub,2013-07-02 23:22:00,
2013-07-02 19:28:00,77.5,72.0,30.10,SSW,192,0.0,2.0,83,0.00,,,0.00,39.0,meteohub,2013-07-02 23:28:00,
2013-07-02 19:29:00,77.5,72.0,30.10,South,184,0.0,2.0,83,0.00,,,0.00,39.0,meteohub,2013-07-02 23:29:00,
2013-07-02 19:34:00,77.4,71.8,30.10,NNE,32,0.0,2.0,83,0.00,,,0.00,40.0,meteohub,2013-07-02 23:34:00,
2013-07-02 19:39:00,77.4,71.4,30.10,ESE,117,1.0,2.0,82,0.00,,,0.00,37.0,meteohub,2013-07-02 23:39:00,
2013-07-02 19:44:00,77.2,71.2,30.11,SSE,163,0.0,3.0,82,0.00,,,0.00,30.0,meteohub,2013-07-02 23:44:00,
2013-07-02 19:49:00,77.0,71.4,30.11,South,176,1.0,4.0,83,0.00,,,0.00,23.0,meteohub,2013-07-02 23:49:00,
2013-07-02 19:54:00,76.8,71.2,30.11,South,174,0.0,4.0,83,0.00,,,0.00,18.0,meteohub,2013-07-02 23:54:00,
2013-07-02 19:59:00,76.6,71.4,30.11,South,174,0.0,4.0,84,0.00,,,0.00,14.0,meteohub,2013-07-02 23:59:00,
2013-07-02 20:01:00,76.5,71.2,30.11,West,275,0.0,3.0,84,0.00,,,0.00,12.0,meteohub,2013-07-03 00:01:00,
2013-07-02 20:06:00,76.3,71.1,30.11,WNW,302,0.0,2.0,84,0.00,,,0.00,11.0,meteohub,2013-07-03 00:06:00,
2013-07-02 20:07:00,76.3,71.1,30.11,WNW,286,0.0,2.0,84,0.00,,,0.00,11.0,meteohub,2013-07-03 00:07:00,
2013-07-02 20:12:00,76.1,70.9,30.11,West,270,0.0,2.0,84,0.00,,,0.00,7.0,meteohub,2013-07-03 00:12:00,
2013-07-02 20:17:00,75.9,70.7,30.11,WSW,252,0.0,3.0,84,0.00,,,0.00,5.0,meteohub,2013-07-03 00:17:00,
2013-07-02 20:22:00,75.9,71.1,30.11,WSW,252,0.0,3.0,85,0.00,,,0.00,5.0,meteohub,2013-07-03 00:22:00,
2013-07-02 20:23:00,75.7,70.9,30.11,WSW,252,0.0,3.0,85,0.00,,,0.00,0.0,meteohub,2013-07-03 00:23:00,
2013-07-02 20:24:00,75.7,70.9,30.11,WSW,250,0.0,3.0,85,0.00,,,0.00,0.0,meteohub,2013-07-03 00:24:00,
2013-07-02 20:28:00,75.7,70.9,30.11,WSW,250,0.0,3.0,85,0.00,,,0.00,0.0,meteohub,2013-07-03 00:28:00,
2013-07-02 20:33:00,75.7,70.9,30.11,SSE,150,0.0,1.0,85,0.00,,,0.00,0.0,meteohub,2013-07-03 00:33:00,
2013-07-02 20:38:00,75.6,71.1,30.11,SE,124,0.0,1.0,86,0.00,,,0.00,0.0,meteohub,2013-07-03 00:38:00,
2013-07-02 20:43:00,75.6,71.1,30.12,West,268,0.0,1.0,86,0.00,,,0.00,0.0,meteohub,2013-07-03 00:43:00,
2013-07-02 20:48:00,75.4,71.2,30.12,SW,215,0.0,1.0,87,0.00,,,0.00,0.0,meteohub,2013-07-03 00:48:00,
2013-07-02 20:53:00,75.4,71.2,30.12,WSW,238,0.0,1.0,87,0.00,,,0.00,0.0,meteohub,2013-07-03 00:53:00,
2013-07-02 20:58:00,75.4,71.2,30.12,ESE,115,0.0,1.0,87,0.00,,,0.00,0.0,meteohub,2013-07-03 00:58:00,
2013-07-02 21:00:00,75.2,71.4,30.12,SE,132,0.0,2.0,88,0.00,,,0.00,0.0,meteohub,2013-07-03 01:00:00,
2013-07-02 21:03:00,75.2,71.4,30.12,ESE,109,0.0,2.0,88,0.00,,,0.00,0.0,meteohub,2013-07-03 01:03:00,
2013-07-02 21:08:00,75.0,71.2,30.12,NE,50,0.0,3.0,88,0.00,,,0.00,0.0,meteohub,2013-07-03 01:08:00,
2013-07-02 21:09:00,75.0,71.2,30.12,NE,46,0.0,3.0,88,0.00,,,0.00,0.0,meteohub,2013-07-03 01:09:00,
2013-07-02 21:14:00,74.8,71.1,30.12,NE,47,0.0,3.0,88,0.00,,,0.00,0.0,meteohub,2013-07-03 01:14:00,
2013-07-02 21:19:00,74.7,70.9,30.12,SW,231,0.0,3.0,88,0.00,,,0.00,0.0,meteohub,2013-07-03 01:19:00,
2013-07-02 21:24:00,74.7,70.9,30.12,SW,231,0.0,2.0,88,0.00,,,0.00,0.0,meteohub,2013-07-03 01:24:00,
2013-07-02 21:26:00,74.7,70.9,30.12,East,84,0.0,2.0,88,0.00,,,0.00,0.0,meteohub,2013-07-03 01:26:00,
2013-07-02 21:31:00,74.5,71.1,30.12,SW,231,0.0,2.0,89,0.00,,,0.00,0.0,meteohub,2013-07-03 01:31:00,
2013-07-02 21:36:00,74.5,71.1,30.12,South,182,0.0,2.0,89,0.00,,,0.00,0.0,meteohub,2013-07-03 01:36:00,
2013-07-02 21:41:00,74.5,71.1,30.12,ESE,123,0.0,3.0,89,0.00,,,0.00,0.0,meteohub,2013-07-03 01:41:00,
2013-07-02 21:46:00,74.1,70.7,30.13,SE,132,0.0,3.0,89,0.00,,,0.00,0.0,meteohub,2013-07-03 01:46:00,
2013-07-02 21:50:00,74.1,70.7,30.13,SE,136,0.0,3.0,89,0.00,,,0.00,0.0,meteohub,2013-07-03 01:50:00,
2013-07-02 21:57:00,74.1,70.7,30.13,SSE,155,0.0,2.0,89,0.00,,,0.00,0.0,meteohub,2013-07-03 01:57:00,
2013-07-02 22:02:00,73.9,70.5,30.13,SSE,147,0.0,1.0,89,0.00,,,0.00,0.0,meteohub,2013-07-03 02:02:00,
2013-07-02 22:07:00,73.9,70.5,30.13,South,173,0.0,1.0,89,0.00,,,0.00,0.0,meteohub,2013-07-03 02:07:00,
2013-07-02 22:12:00,73.9,70.5,30.14,SE,129,0.0,5.0,89,0.00,,,0.00,0.0,meteohub,2013-07-03 02:12:00,
2013-07-02 22:17:00,73.8,70.3,30.14,SSE,155,0.0,5.0,89,0.00,,,0.00,0.0,meteohub,2013-07-03 02:17:00,
2013-07-02 22:22:00,73.8,70.3,30.14,South,173,0.0,1.0,89,0.00,,,0.00,0.0,meteohub,2013-07-03 02:22:00,
2013-07-02 22:27:00,73.8,70.3,30.14,South,190,0.0,3.0,89,0.00,,,0.00,0.0,meteohub,2013-07-03 02:27:00,
2013-07-02 22:32:00,73.6,70.2,30.14,South,189,0.0,3.0,89,0.00,,,0.00,0.0,meteohub,2013-07-03 02:32:00,
2013-07-02 22:35:00,73.6,70.2,30.14,South,189,0.0,3.0,89,0.00,,,0.00,0.0,meteohub,2013-07-03 02:35:00,
2013-07-02 22:40:00,73.6,70.2,30.14,NW,313,0.0,3.0,89,0.00,,,0.00,0.0,meteohub,2013-07-03 02:40:00,
2013-07-02 22:45:00,73.4,70.0,30.14,SW,222,0.0,1.0,89,0.00,,,0.00,0.0,meteohub,2013-07-03 02:45:00,
2013-07-02 22:48:00,73.4,70.0,30.14,SW,222,0.0,1.0,89,0.00,,,0.00,0.0,meteohub,2013-07-03 02:48:00,
2013-07-02 22:53:00,73.2,69.8,30.14,SW,222,0.0,1.0,89,0.00,,,0.00,0.0,meteohub,2013-07-03 02:53:00,
2013-07-02 23:00:00,73.2,69.8,30.14,SSW,205,0.0,1.0,89,0.00,,,0.00,0.0,meteohub,2013-07-03 03:00:00,
2013-07-02 23:07:00,73.0,69.6,30.14,SE,138,0.0,3.0,89,0.00,,,0.00,0.0,meteohub,2013-07-03 03:07:00,
2013-07-02 23:12:00,73.0,69.6,30.13,SE,141,0.0,1.0,89,0.00,,,0.00,0.0,meteohub,2013-07-03 03:12:00,
2013-07-02 23:17:00,73.0,69.6,30.13,SSW,205,0.0,1.0,89,0.00,,,0.00,0.0,meteohub,2013-07-03 03:17:00,
2013-07-02 23:22:00,72.9,69.8,30.13,SSW,203,0.0,1.0,90,0.00,,,0.00,0.0,meteohub,2013-07-03 03:22:00,
2013-07-02 23:27:00,72.9,69.8,30.13,SSW,203,0.0,1.0,90,0.00,,,0.00,0.0,meteohub,2013-07-03 03:27:00,
2013-07-02 23:32:00,72.9,69.8,30.13,SSW,194,0.0,1.0,90,0.00,,,0.00,0.0,meteohub,2013-07-03 03:32:00,
2013-07-02 23:36:00,72.7,69.6,30.14,SSW,194,0.0,1.0,90,0.00,,,0.00,0.0,meteohub,2013-07-03 03:36:00,
2013-07-02 23:41:00,72.7,69.6,30.14,SSW,194,0.0,1.0,90,0.00,,,0.00,0.0,meteohub,2013-07-03 03:41:00,
2013-07-02 23:47:00,72.7,69.6,30.14,South,186,0.0,1.0,90,0.00,,,0.00,0.0,meteohub,2013-07-03 03:47:00,
2013-07-02 23:49:00,72.7,69.6,30.14,South,186,0.0,1.0,90,0.00,,,0.00,0.0,meteohub,2013-07-03 03:49:00,
2013-07-02 23:57:00,72.7,69.6,30.14,South,185,0.0,1.0,90,0.00,,,0.00,0.0,meteohub,2013-07-03 03:57:00,